Time,TemperatureF,DewpointF,PressureIn,WindDirection,WindDirectionDegrees,WindSpeedMPH,WindSpeedGustMPH,Humidity,HourlyPrecipIn,Conditions,Clouds,dailyrainin,SolarRadiationWatts/m^2,SoftwareType,DateUTC
2013-11-18 00:02:00,78.4,25.3,-100.00,SSW,200,0.0,-999.0,14,-99.99,,,-99.99,0.0,meteohub,2013-11-18 05:02:00,
2013-11-18 00:07:00,78.4,25.3,-100.00,SSW,201,0.0,-999.0,14,-99.99,,,-99.99,0.0,meteohub,2013-11-18 05:07:00,
2013-11-18 00:12:00,78.3,25.2,-100.00,SSW,201,0.0,-999.0,14,-99.99,,,-99.99,0.0,meteohub,2013-11-18 05:12:00,
2013-11-18 00:17:00,78.3,25.2,-100.00,SSW,200,0.0,-999.0,14,-99.99,,,-99.99,0.0,meteohub,2013-11-18 05:17:00,
2013-11-18 00:22:00,78.1,25.0,-100.00,SSW,200,0.0,-999.0,14,-99.99,,,-99.99,0.0,meteohub,2013-11-18 05:22:00,
2013-11-18 00:27:00,78.1,25.0,-100.00,SSW,201,0.0,-999.0,14,-99.99,,,-99.99,0.0,meteohub,2013-11-18 05:27:00,
2013-11-18 00:32:00,77.9,24.8,-100.00,SSW,201,0.0,-999.0,14,-99.99,,,-99.99,0.0,meteohub,2013-11-18 05:32:00,
2013-11-18 00:37:00,77.9,24.8,-100.00,SSW,200,0.0,-999.0,14,-99.99,,,-99.99,0.0,meteohub,2013-11-18 05:37:00,
2013-11-18 00:42:00,78.3,25.2,-100.00,SSW,198,0.0,-999.0,14,-99.99,,,-99.99,0.0,meteohub,2013-11-18 05:42:00,
2013-11-18 00:47:00,78.3,25.2,-100.00,SSW,198,0.0,-999.0,14,-99.99,,,-99.99,0.0,meteohub,2013-11-18 05:47:00,
2013-11-18 00:57:00,78.6,25.5,-100.00,SSW,192,0.0,-999.0,14,-99.99,,,-99.99,0.0,meteohub,2013-11-18 05:57:00,
2013-11-18 01:02:00,79.0,25.7,-100.00,SSW,193,0.0,-999.0,14,-99.99,,,-99.99,0.0,meteohub,2013-11-18 06:02:00,
2013-11-18 01:07:00,79.0,25.7,-100.00,SSW,193,0.0,-999.0,14,-99.99,,,-99.99,0.0,meteohub,2013-11-18 06:07:00,
2013-11-18 01:12:00,79.2,27.5,-100.00,SSW,192,0.0,-999.0,15,-99.99,,,-99.99,0.0,meteohub,2013-11-18 06:12:00,
2013-11-18 01:17:00,79.2,27.5,-100.00,SSW,192,0.0,-999.0,15,-99.99,,,-99.99,0.0,meteohub,2013-11-18 06:17:00,
2013-11-18 01:22:00,79.3,27.7,-100.00,South,189,0.0,-999.0,15,-99.99,,,-99.99,0.0,meteohub,2013-11-18 06:22:00,
2013-11-18 01:27:00,79.2,27.5,-100.00,South,188,0.0,-999.0,15,-99.99,,,-99.99,0.0,meteohub,2013-11-18 06:27:00,
2013-11-18 01:32:00,79.2,27.5,-100.00,South,175,0.0,-999.0,15,-99.99,,,-99.99,0.0,meteohub,2013-11-18 06:32:00,
2013-11-18 01:37:00,79.0,27.3,-100.00,South,175,0.0,-999.0,15,-99.99,,,-99.99,0.0,meteohub,2013-11-18 06:37:00,
2013-11-18 01:42:00,79.2,27.5,-100.00,South,175,0.0,-999.0,15,-99.99,,,-99.99,0.0,meteohub,2013-11-18 06:42:00,
2013-11-18 01:47:00,79.0,27.3,-100.00,South,175,2.0,-999.0,15,-99.99,,,-99.99,0.0,meteohub,2013-11-18 06:47:00,
2013-11-18 01:52:00,79.3,27.7,-100.00,South,173,0.0,-999.0,15,-99.99,,,-99.99,0.0,meteohub,2013-11-18 06:52:00,
2013-11-18 01:57:00,79.3,26.1,-100.00,South,172,0.0,-999.0,14,-99.99,,,-99.99,0.0,meteohub,2013-11-18 06:57:00,
2013-11-18 02:02:00,79.3,26.1,-100.00,South,172,0.0,-999.0,14,-99.99,,,-99.99,0.0,meteohub,2013-11-18 07:02:00,
2013-11-18 02:07:00,79.2,25.9,-100.00,South,172,0.0,-999.0,14,-99.99,,,-99.99,0.0,meteohub,2013-11-18 07:07:00,
2013-11-18 02:12:00,79.3,26.1,-100.00,South,172,0.0,-999.0,14,-99.99,,,-99.99,0.0,meteohub,2013-11-18 07:12:00,
2013-11-18 02:17:00,79.2,25.9,-100.00,South,172,0.0,-999.0,14,-99.99,,,-99.99,0.0,meteohub,2013-11-18 07:17:00,
2013-11-18 02:22:00,79.2,25.9,-100.00,South,171,0.0,-999.0,14,-99.99,,,-99.99,0.0,meteohub,2013-11-18 07:22:00,
2013-11-18 02:32:00,79.2,25.9,-100.00,South,172,1.0,-999.0,14,-99.99,,,-99.99,0.0,meteohub,2013-11-18 07:32:00,
2013-11-18 02:37:00,79.2,25.9,-100.00,South,171,0.0,-999.0,14,-99.99,,,-99.99,0.0,meteohub,2013-11-18 07:37:00,
2013-11-18 02:42:00,79.2,25.9,-100.00,South,172,0.0,-999.0,14,-99.99,,,-99.99,0.0,meteohub,2013-11-18 07:42:00,
2013-11-18 02:47:00,79.2,25.9,-100.00,South,172,0.0,-999.0,14,-99.99,,,-99.99,0.0,meteohub,2013-11-18 07:47:00,
2013-11-18 02:52:00,79.2,25.9,-100.00,South,172,0.0,-999.0,14,-99.99,,,-99.99,0.0,meteohub,2013-11-18 07:52:00,
2013-11-18 02:57:00,79.2,25.9,-100.00,South,172,0.0,-999.0,14,-99.99,,,-99.99,0.0,meteohub,2013-11-18 07:57:00,
2013-11-18 03:02:00,79.2,25.9,-100.00,South,172,0.0,-999.0,14,-99.99,,,-99.99,0.0,meteohub,2013-11-18 08:02:00,
2013-11-18 03:07:00,79.2,25.9,-100.00,South,172,0.0,-999.0,14,-99.99,,,-99.99,0.0,meteohub,2013-11-18 08:07:00,
2013-11-18 03:12:00,79.2,25.9,-100.00,South,172,0.0,-999.0,14,-99.99,,,-99.99,0.0,meteohub,2013-11-18 08:12:00,
2013-11-18 03:17:00,79.0,25.7,-100.00,South,172,0.0,-999.0,14,-99.99,,,-99.99,0.0,meteohub,2013-11-18 08:17:00,
2013-11-18 03:22:00,79.0,25.7,-100.00,South,172,0.0,-999.0,14,-99.99,,,-99.99,0.0,meteohub,2013-11-18 08:22:00,
2013-11-18 03:27:00,78.8,25.5,-100.00,South,172,0.0,-999.0,14,-99.99,,,-99.99,0.0,meteohub,2013-11-18 08:27:00,
2013-11-18 03:32:00,78.6,25.5,-100.00,South,172,0.0,-999.0,14,-99.99,,,-99.99,0.0,meteohub,2013-11-18 08:32:00,
2013-11-18 03:37:00,78.6,25.5,-100.00,South,172,0.0,-999.0,14,-99.99,,,-99.99,0.0,meteohub,2013-11-18 08:37:00,
2013-11-18 03:42:00,79.0,25.7,-100.00,South,172,0.0,-999.0,14,-99.99,,,-99.99,0.0,meteohub,2013-11-18 08:42:00,
2013-11-18 03:47:00,78.8,25.5,-100.00,South,172,0.0,-999.0,14,-99.99,,,-99.99,0.0,meteohub,2013-11-18 08:47:00,
2013-11-18 03:52:00,78.6,25.5,-100.00,South,172,0.0,-999.0,14,-99.99,,,-99.99,0.0,meteohub,2013-11-18 08:52:00,
2013-11-18 03:57:00,78.6,25.5,-100.00,South,172,0.0,-999.0,14,-99.99,,,-99.99,0.0,meteohub,2013-11-18 08:57:00,
2013-11-18 04:02:00,78.4,25.3,-100.00,South,172,0.0,-999.0,14,-99.99,,,-99.99,0.0,meteohub,2013-11-18 09:02:00,
2013-11-18 04:07:00,78.3,25.2,-100.00,South,172,0.0,-999.0,14,-99.99,,,-99.99,0.0,meteohub,2013-11-18 09:07:00,
2013-11-18 04:12:00,78.1,25.0,-100.00,South,172,0.0,-999.0,14,-99.99,,,-99.99,0.0,meteohub,2013-11-18 09:12:00,
2013-11-18 04:17:00,78.1,25.0,-100.00,South,173,0.0,-999.0,14,-99.99,,,-99.99,0.0,meteohub,2013-11-18 09:17:00,
2013-11-18 04:22:00,77.9,24.8,-100.00,South,172,0.0,-999.0,14,-99.99,,,-99.99,0.0,meteohub,2013-11-18 09:22:00,
2013-11-18 04:27:00,77.9,24.8,-100.00,South,173,0.0,-999.0,14,-99.99,,,-99.99,0.0,meteohub,2013-11-18 09:27:00,
2013-11-18 04:32:00,77.7,24.8,-100.00,South,173,0.0,-999.0,14,-99.99,,,-99.99,0.0,meteohub,2013-11-18 09:32:00,
2013-11-18 04:37:00,77.5,24.6,-100.00,South,173,0.0,-999.0,14,-99.99,,,-99.99,0.0,meteohub,2013-11-18 09:37:00,
2013-11-18 04:42:00,77.2,24.3,-100.00,South,173,0.0,-999.0,14,-99.99,,,-99.99,0.0,meteohub,2013-11-18 09:42:00,
2013-11-18 04:47:00,76.8,24.1,-100.00,South,173,0.0,-999.0,14,-99.99,,,-99.99,0.0,meteohub,2013-11-18 09:47:00,
2013-11-18 04:52:00,76.6,23.9,-100.00,South,173,0.0,-999.0,14,-99.99,,,-99.99,0.0,meteohub,2013-11-18 09:52:00,
2013-11-18 04:57:00,76.5,25.3,-100.00,South,173,0.0,-999.0,15,-99.99,,,-99.99,0.0,meteohub,2013-11-18 09:57:00,
2013-11-18 05:02:00,76.1,25.2,-100.00,South,173,0.0,-999.0,15,-99.99,,,-99.99,0.0,meteohub,2013-11-18 10:02:00,
2013-11-18 05:07:00,75.9,25.0,-100.00,South,173,0.0,-999.0,15,-99.99,,,-99.99,0.0,meteohub,2013-11-18 10:07:00,
2013-11-18 05:12:00,75.9,26.4,-100.00,South,173,0.0,-999.0,16,-99.99,,,-99.99,0.0,meteohub,2013-11-18 10:12:00,
2013-11-18 05:17:00,76.1,26.6,-100.00,South,175,0.0,-999.0,16,-99.99,,,-99.99,0.0,meteohub,2013-11-18 10:17:00,
2013-11-18 05:22:00,76.3,26.8,-100.00,South,175,0.0,-999.0,16,-99.99,,,-99.99,0.0,meteohub,2013-11-18 10:22:00,
2013-11-18 05:27:00,76.3,26.8,-100.00,South,175,0.0,-999.0,16,-99.99,,,-99.99,0.0,meteohub,2013-11-18 10:27:00,
2013-11-18 05:32:00,75.9,26.4,-100.00,South,175,0.0,-999.0,16,-99.99,,,-99.99,0.0,meteohub,2013-11-18 10:32:00,
2013-11-18 05:37:00,75.9,26.4,-100.00,South,175,0.0,-999.0,16,-99.99,,,-99.99,0.0,meteohub,2013-11-18 10:37:00,
2013-11-18 05:42:00,75.7,26.4,-100.00,South,175,0.0,-999.0,16,-99.99,,,-99.99,0.0,meteohub,2013-11-18 10:42:00,
2013-11-18 05:47:00,75.6,26.2,-100.00,South,175,0.0,-999.0,16,-99.99,,,-99.99,0.0,meteohub,2013-11-18 10:47:00,
2013-11-18 05:52:00,75.6,26.2,-100.00,South,175,0.0,-999.0,16,-99.99,,,-99.99,0.0,meteohub,2013-11-18 10:52:00,
2013-11-18 05:57:00,75.2,25.9,-100.00,South,175,0.0,-999.0,16,-99.99,,,-99.99,0.0,meteohub,2013-11-18 10:57:00,
2013-11-18 06:02:00,74.8,27.1,-100.00,South,175,0.0,-999.0,17,-99.99,,,-99.99,0.0,meteohub,2013-11-18 11:02:00,
2013-11-18 06:07:00,74.7,27.0,-100.00,South,175,0.0,-999.0,17,-99.99,,,-99.99,0.0,meteohub,2013-11-18 11:07:00,
2013-11-18 06:12:00,74.5,26.8,-100.00,South,175,0.0,-999.0,17,-99.99,,,-99.99,0.0,meteohub,2013-11-18 11:12:00,
2013-11-18 06:17:00,74.3,26.6,-100.00,South,175,0.0,-999.0,17,-99.99,,,-99.99,0.0,meteohub,2013-11-18 11:17:00,
2013-11-18 06:22:00,74.1,27.9,-100.00,South,175,0.0,-999.0,18,-99.99,,,-99.99,0.0,meteohub,2013-11-18 11:22:00,
2013-11-18 06:27:00,73.9,27.7,-100.00,South,175,0.0,-999.0,18,-99.99,,,-99.99,0.0,meteohub,2013-11-18 11:27:00,
2013-11-18 06:32:00,73.8,27.7,-100.00,South,175,0.0,-999.0,18,-99.99,,,-99.99,0.0,meteohub,2013-11-18 11:32:00,
2013-11-18 06:37:00,73.6,27.5,-100.00,South,175,0.0,-999.0,18,-99.99,,,-99.99,0.0,meteohub,2013-11-18 11:37:00,
2013-11-18 06:42:00,73.4,28.6,-100.00,South,175,0.0,-999.0,19,-99.99,,,-99.99,0.0,meteohub,2013-11-18 11:42:00,
2013-11-18 06:47:00,73.4,28.6,-100.00,South,175,0.0,-999.0,19,-99.99,,,-99.99,5.0,meteohub,2013-11-18 11:47:00,
2013-11-18 06:52:00,73.2,28.4,-100.00,South,175,0.0,-999.0,19,-99.99,,,-99.99,9.0,meteohub,2013-11-18 11:52:00,
2013-11-18 06:57:00,73.0,28.4,-100.00,South,175,0.0,-999.0,19,-99.99,,,-99.99,11.0,meteohub,2013-11-18 11:57:00,
2013-11-18 07:02:00,72.9,28.2,-100.00,South,175,0.0,-999.0,19,-99.99,,,-99.99,16.0,meteohub,2013-11-18 12:02:00,
2013-11-18 07:07:00,72.7,28.0,-100.00,South,175,0.0,-999.0,19,-99.99,,,-99.99,19.0,meteohub,2013-11-18 12:07:00,
2013-11-18 07:12:00,72.9,28.2,-100.00,South,175,0.0,-999.0,19,-99.99,,,-99.99,21.0,meteohub,2013-11-18 12:12:00,
2013-11-18 07:17:00,73.0,29.7,-100.00,South,175,0.0,-999.0,20,-99.99,,,-99.99,25.0,meteohub,2013-11-18 12:17:00,
2013-11-18 07:22:00,72.9,29.5,-100.00,South,175,0.0,-999.0,20,-99.99,,,-99.99,32.0,meteohub,2013-11-18 12:22:00,
2013-11-18 07:27:00,72.9,29.5,-100.00,South,175,0.0,-999.0,20,-99.99,,,-99.99,30.0,meteohub,2013-11-18 12:27:00,
2013-11-18 07:32:00,73.0,29.7,-100.00,South,175,0.0,-999.0,20,-99.99,,,-99.99,37.0,meteohub,2013-11-18 12:32:00,
2013-11-18 07:37:00,73.0,29.7,-100.00,South,175,0.0,-999.0,20,-99.99,,,-99.99,49.0,meteohub,2013-11-18 12:37:00,
2013-11-18 07:42:00,73.0,29.7,-100.00,South,175,0.0,-999.0,20,-99.99,,,-99.99,56.0,meteohub,2013-11-18 12:42:00,
2013-11-18 07:47:00,73.2,29.7,-100.00,South,175,0.0,-999.0,20,-99.99,,,-99.99,77.0,meteohub,2013-11-18 12:47:00,
2013-11-18 07:52:00,73.6,30.0,-100.00,South,175,0.0,-999.0,20,-99.99,,,-99.99,79.0,meteohub,2013-11-18 12:52:00,
2013-11-18 07:57:00,73.8,30.2,-100.00,South,175,0.0,-999.0,20,-99.99,,,-99.99,91.0,meteohub,2013-11-18 12:57:00,
2013-11-18 08:02:00,73.9,30.4,-100.00,South,175,0.0,-999.0,20,-99.99,,,-99.99,100.0,meteohub,2013-11-18 13:02:00,
2013-11-18 08:07:00,74.1,30.6,-100.00,South,175,0.0,-999.0,20,-99.99,,,-99.99,111.0,meteohub,2013-11-18 13:07:00,
2013-11-18 08:12:00,74.7,30.9,-100.00,South,175,0.0,-999.0,20,-99.99,,,-99.99,107.0,meteohub,2013-11-18 13:12:00,
2013-11-18 08:17:00,74.8,31.1,-100.00,South,175,0.0,-999.0,20,-99.99,,,-99.99,120.0,meteohub,2013-11-18 13:17:00,
2013-11-18 08:22:00,75.4,31.5,-100.00,South,176,0.0,-999.0,20,-99.99,,,-99.99,223.0,meteohub,2013-11-18 13:22:00,
2013-11-18 08:27:00,75.7,31.8,-100.00,South,176,0.0,-999.0,20,-99.99,,,-99.99,153.0,meteohub,2013-11-18 13:27:00,
2013-11-18 08:32:00,76.5,31.1,-100.00,South,180,0.0,-999.0,19,-99.99,,,-99.99,163.0,meteohub,2013-11-18 13:32:00,
2013-11-18 08:37:00,77.2,30.4,-100.00,South,184,0.0,-999.0,18,-99.99,,,-99.99,192.0,meteohub,2013-11-18 13:37:00,
2013-11-18 08:42:00,77.5,29.3,-100.00,South,186,0.0,-999.0,17,-99.99,,,-99.99,176.0,meteohub,2013-11-18 13:42:00,
2013-11-18 08:47:00,78.1,28.2,-100.00,South,189,0.0,-999.0,16,-99.99,,,-99.99,207.0,meteohub,2013-11-18 13:47:00,
2013-11-18 08:52:00,78.6,28.8,-100.00,SSW,204,0.0,-999.0,16,-99.99,,,-99.99,223.0,meteohub,2013-11-18 13:52:00,
2013-11-18 08:57:00,79.2,27.5,-100.00,SSW,212,1.0,-999.0,15,-99.99,,,-99.99,237.0,meteohub,2013-11-18 13:57:00,
2013-11-18 09:02:00,79.5,27.9,-100.00,SW,217,0.0,-999.0,15,-99.99,,,-99.99,241.0,meteohub,2013-11-18 14:02:00,
2013-11-18 09:07:00,79.9,26.4,-100.00,SW,235,0.0,-999.0,14,-99.99,,,-99.99,274.0,meteohub,2013-11-18 14:07:00,
2013-11-18 09:12:00,80.2,26.8,-100.00,SW,235,0.0,-999.0,14,-99.99,,,-99.99,232.0,meteohub,2013-11-18 14:12:00,
2013-11-18 09:17:00,80.4,25.2,-100.00,WSW,244,0.0,-999.0,13,-99.99,,,-99.99,515.0,meteohub,2013-11-18 14:17:00,
2013-11-18 09:22:00,81.0,25.5,-100.00,WSW,244,0.0,-999.0,13,-99.99,,,-99.99,496.0,meteohub,2013-11-18 14:22:00,
2013-11-18 09:27:00,81.3,25.7,-100.00,WSW,244,0.0,-999.0,13,-99.99,,,-99.99,499.0,meteohub,2013-11-18 14:27:00,
2013-11-18 09:32:00,81.9,26.2,-100.00,WSW,246,3.0,-999.0,13,-99.99,,,-99.99,512.0,meteohub,2013-11-18 14:32:00,
2013-11-18 09:37:00,82.0,26.4,-100.00,WSW,246,0.0,-999.0,13,-99.99,,,-99.99,102.0,meteohub,2013-11-18 14:37:00,
2013-11-18 09:42:00,82.2,28.2,-100.00,WSW,246,0.0,-999.0,14,-99.99,,,-99.99,111.0,meteohub,2013-11-18 14:42:00,
2013-11-18 09:47:00,82.0,28.2,-100.00,WSW,246,0.0,-999.0,14,-99.99,,,-99.99,118.0,meteohub,2013-11-18 14:47:00,
2013-11-18 09:52:00,81.9,29.7,-100.00,WSW,246,0.0,-999.0,15,-99.99,,,-99.99,171.0,meteohub,2013-11-18 14:52:00,
2013-11-18 09:57:00,81.7,31.1,-100.00,WSW,246,0.0,-999.0,16,-99.99,,,-99.99,745.0,meteohub,2013-11-18 14:57:00,
2013-11-18 10:02:00,82.6,28.6,-100.00,WSW,246,0.0,-999.0,14,-99.99,,,-99.99,817.0,meteohub,2013-11-18 15:02:00,
2013-11-18 10:07:00,82.8,38.8,-100.00,WSW,244,6.0,-999.0,21,-99.99,,,-99.99,529.0,meteohub,2013-11-18 15:07:00,
2013-11-18 10:12:00,82.2,41.9,-100.00,WSW,238,1.0,-999.0,24,-99.99,,,-99.99,661.0,meteohub,2013-11-18 15:12:00,
2013-11-18 10:17:00,82.2,41.9,-100.00,SW,234,0.0,-999.0,24,-99.99,,,-99.99,621.0,meteohub,2013-11-18 15:17:00,
2013-11-18 10:22:00,82.2,43.9,-100.00,SW,235,0.0,-999.0,26,-99.99,,,-99.99,322.0,meteohub,2013-11-18 15:22:00,
2013-11-18 10:27:00,82.0,43.7,-100.00,SW,233,5.0,-999.0,26,-99.99,,,-99.99,323.0,meteohub,2013-11-18 15:27:00,
2013-11-18 10:32:00,81.9,42.6,-100.00,SW,228,0.0,-999.0,25,-99.99,,,-99.99,396.0,meteohub,2013-11-18 15:32:00,
2013-11-18 10:37:00,82.2,40.8,-100.00,SW,227,0.0,-999.0,23,-99.99,,,-99.99,408.0,meteohub,2013-11-18 15:37:00,
2013-11-18 10:42:00,82.0,43.7,-100.00,SW,227,0.0,-999.0,26,-99.99,,,-99.99,462.0,meteohub,2013-11-18 15:42:00,
2013-11-18 10:47:00,82.6,42.1,-100.00,SW,227,0.0,-999.0,24,-99.99,,,-99.99,410.0,meteohub,2013-11-18 15:47:00,
2013-11-18 10:52:00,82.6,46.2,-100.00,SW,226,0.0,-999.0,28,-99.99,,,-99.99,840.0,meteohub,2013-11-18 15:52:00,
2013-11-18 10:57:00,83.3,45.9,-100.00,SW,220,3.0,-999.0,27,-99.99,,,-99.99,819.0,meteohub,2013-11-18 15:57:00,
2013-11-18 11:02:00,83.1,48.6,-100.00,SW,218,2.0,-999.0,30,-99.99,,,-99.99,858.0,meteohub,2013-11-18 16:02:00,
2013-11-18 11:07:00,83.3,48.6,-100.00,SW,219,3.0,-999.0,30,-99.99,,,-99.99,900.0,meteohub,2013-11-18 16:07:00,
2013-11-18 11:12:00,83.5,49.6,-100.00,SSW,211,4.0,-999.0,31,-99.99,,,-99.99,615.0,meteohub,2013-11-18 16:12:00,
2013-11-18 11:17:00,83.1,47.7,-100.00,SSW,200,5.0,-999.0,29,-99.99,,,-99.99,875.0,meteohub,2013-11-18 16:17:00,
2013-11-18 11:22:00,83.5,51.4,-100.00,SSW,198,0.0,-999.0,33,-99.99,,,-99.99,455.0,meteohub,2013-11-18 16:22:00,
2013-11-18 11:27:00,83.3,49.5,-100.00,SSW,198,0.0,-999.0,31,-99.99,,,-99.99,376.0,meteohub,2013-11-18 16:27:00,
2013-11-18 11:32:00,82.9,50.0,-100.00,SSW,198,2.0,-999.0,32,-99.99,,,-99.99,301.0,meteohub,2013-11-18 16:32:00,
2013-11-18 11:37:00,82.9,45.5,-100.00,SSW,198,1.0,-999.0,27,-99.99,,,-99.99,244.0,meteohub,2013-11-18 16:37:00,
2013-11-18 11:42:00,83.1,44.6,-100.00,SSW,198,0.0,-999.0,26,-99.99,,,-99.99,227.0,meteohub,2013-11-18 16:42:00,
2013-11-18 11:47:00,82.8,46.4,-100.00,SSW,196,0.0,-999.0,28,-99.99,,,-99.99,239.0,meteohub,2013-11-18 16:47:00,
2013-11-18 11:52:00,82.8,44.4,-100.00,SSW,196,0.0,-999.0,26,-99.99,,,-99.99,257.0,meteohub,2013-11-18 16:52:00,
2013-11-18 11:57:00,82.2,45.9,-100.00,SSW,196,0.0,-999.0,28,-99.99,,,-99.99,257.0,meteohub,2013-11-18 16:57:00,
2013-11-18 12:02:00,82.6,44.2,-100.00,SSW,196,2.0,-999.0,26,-99.99,,,-99.99,250.0,meteohub,2013-11-18 17:02:00,
2013-11-18 12:07:00,82.6,47.1,-100.00,SSW,194,0.0,-999.0,29,-99.99,,,-99.99,272.0,meteohub,2013-11-18 17:07:00,
2013-11-18 12:12:00,82.8,47.3,-100.00,SSW,192,1.0,-999.0,29,-99.99,,,-99.99,257.0,meteohub,2013-11-18 17:12:00,
2013-11-18 12:17:00,82.6,46.2,-100.00,SSE,156,6.0,-999.0,28,-99.99,,,-99.99,264.0,meteohub,2013-11-18 17:17:00,
2013-11-18 12:22:00,82.8,44.4,-100.00,SSE,153,0.0,-999.0,26,-99.99,,,-99.99,432.0,meteohub,2013-11-18 17:22:00,
2013-11-18 12:27:00,82.9,43.5,-100.00,SSE,153,2.0,-999.0,25,-99.99,,,-99.99,376.0,meteohub,2013-11-18 17:27:00,
2013-11-18 12:32:00,83.1,43.7,-100.00,SSE,161,2.0,-999.0,25,-99.99,,,-99.99,336.0,meteohub,2013-11-18 17:32:00,
2013-11-18 12:37:00,82.9,41.4,-100.00,SSE,164,4.0,-999.0,23,-99.99,,,-99.99,230.0,meteohub,2013-11-18 17:37:00,
2013-11-18 12:42:00,82.9,40.1,-100.00,South,175,5.0,-999.0,22,-99.99,,,-99.99,232.0,meteohub,2013-11-18 17:42:00,
2013-11-18 12:47:00,82.8,40.1,-100.00,South,171,0.0,-999.0,22,-99.99,,,-99.99,229.0,meteohub,2013-11-18 17:47:00,
2013-11-18 12:52:00,82.6,41.0,-100.00,South,178,5.0,-999.0,23,-99.99,,,-99.99,237.0,meteohub,2013-11-18 17:52:00,
2013-11-18 12:57:00,82.6,41.0,-100.00,South,172,0.0,-999.0,23,-99.99,,,-99.99,234.0,meteohub,2013-11-18 17:57:00,
2013-11-18 13:02:00,82.6,41.0,-100.00,South,171,3.0,-999.0,23,-99.99,,,-99.99,269.0,meteohub,2013-11-18 18:02:00,
2013-11-18 13:07:00,82.4,43.0,-100.00,South,169,5.0,-999.0,25,-99.99,,,-99.99,318.0,meteohub,2013-11-18 18:07:00,
2013-11-18 13:12:00,82.6,41.0,-100.00,South,172,4.0,-999.0,23,-99.99,,,-99.99,343.0,meteohub,2013-11-18 18:12:00,
2013-11-18 13:17:00,82.2,45.0,-100.00,South,178,3.0,-999.0,27,-99.99,,,-99.99,336.0,meteohub,2013-11-18 18:17:00,
2013-11-18 13:22:00,82.2,46.8,-100.00,South,184,5.0,-999.0,29,-99.99,,,-99.99,334.0,meteohub,2013-11-18 18:22:00,
2013-11-18 13:27:00,82.4,45.1,-100.00,South,187,5.0,-999.0,27,-99.99,,,-99.99,367.0,meteohub,2013-11-18 18:27:00,
2013-11-18 13:32:00,82.6,45.1,-100.00,South,188,5.0,-999.0,27,-99.99,,,-99.99,288.0,meteohub,2013-11-18 18:32:00,
2013-11-18 13:37:00,82.8,48.2,-100.00,South,187,0.0,-999.0,30,-99.99,,,-99.99,278.0,meteohub,2013-11-18 18:37:00,
2013-11-18 13:42:00,82.8,47.3,-100.00,South,187,0.0,-999.0,29,-99.99,,,-99.99,292.0,meteohub,2013-11-18 18:42:00,
2013-11-18 13:47:00,82.6,48.0,-100.00,South,185,4.0,-999.0,30,-99.99,,,-99.99,278.0,meteohub,2013-11-18 18:47:00,
2013-11-18 13:52:00,82.6,47.1,-100.00,South,185,0.0,-999.0,29,-99.99,,,-99.99,299.0,meteohub,2013-11-18 18:52:00,
2013-11-18 13:57:00,82.6,46.2,-100.00,South,184,4.0,-999.0,28,-99.99,,,-99.99,297.0,meteohub,2013-11-18 18:57:00,
2013-11-18 14:02:00,82.8,45.3,-100.00,South,171,4.0,-999.0,27,-99.99,,,-99.99,323.0,meteohub,2013-11-18 19:02:00,
2013-11-18 14:07:00,82.6,47.1,-100.00,South,180,4.0,-999.0,29,-99.99,,,-99.99,338.0,meteohub,2013-11-18 19:07:00,
2013-11-18 14:12:00,82.2,45.9,-100.00,SSW,205,6.0,-999.0,28,-99.99,,,-99.99,374.0,meteohub,2013-11-18 19:12:00,
2013-11-18 14:17:00,82.6,47.1,-100.00,SSW,195,2.0,-999.0,29,-99.99,,,-99.99,374.0,meteohub,2013-11-18 19:17:00,
2013-11-18 14:22:00,82.8,49.8,-100.00,South,172,0.0,-999.0,32,-99.99,,,-99.99,304.0,meteohub,2013-11-18 19:22:00,
2013-11-18 14:27:00,82.6,50.5,-100.00,South,183,3.0,-999.0,33,-99.99,,,-99.99,323.0,meteohub,2013-11-18 19:27:00,
2013-11-18 14:32:00,82.6,48.9,-100.00,SSE,163,5.0,-999.0,31,-99.99,,,-99.99,272.0,meteohub,2013-11-18 19:32:00,
2013-11-18 14:37:00,82.6,50.5,-100.00,SSE,159,4.0,-999.0,33,-99.99,,,-99.99,267.0,meteohub,2013-11-18 19:37:00,
2013-11-18 14:42:00,82.2,51.8,-100.00,SSE,164,1.0,-999.0,35,-99.99,,,-99.99,216.0,meteohub,2013-11-18 19:42:00,
2013-11-18 14:47:00,82.6,48.9,-100.00,SSE,148,0.0,-999.0,31,-99.99,,,-99.99,387.0,meteohub,2013-11-18 19:47:00,
2013-11-18 14:52:00,82.9,49.3,-100.00,South,180,0.0,-999.0,31,-99.99,,,-99.99,388.0,meteohub,2013-11-18 19:52:00,
2013-11-18 14:57:00,83.1,50.2,-100.00,SSE,148,5.0,-999.0,32,-99.99,,,-99.99,346.0,meteohub,2013-11-18 19:57:00,
2013-11-18 15:02:00,82.8,53.1,-100.00,SSW,202,5.0,-999.0,36,-99.99,,,-99.99,529.0,meteohub,2013-11-18 20:02:00,
2013-11-18 15:07:00,82.9,54.0,-100.00,SE,143,6.0,-999.0,37,-99.99,,,-99.99,531.0,meteohub,2013-11-18 20:07:00,
2013-11-18 15:12:00,82.8,52.3,-100.00,SSW,194,1.0,-999.0,35,-99.99,,,-99.99,288.0,meteohub,2013-11-18 20:12:00,
2013-11-18 15:17:00,82.9,50.9,-100.00,SE,130,4.0,-999.0,33,-99.99,,,-99.99,480.0,meteohub,2013-11-18 20:17:00,
2013-11-18 15:22:00,82.9,54.7,-100.00,SSW,198,7.0,-999.0,38,-99.99,,,-99.99,445.0,meteohub,2013-11-18 20:22:00,
2013-11-18 15:27:00,82.9,50.0,-100.00,SSW,202,4.0,-999.0,32,-99.99,,,-99.99,396.0,meteohub,2013-11-18 20:27:00,
2013-11-18 15:32:00,82.9,50.9,-100.00,SSW,198,0.0,-999.0,33,-99.99,,,-99.99,352.0,meteohub,2013-11-18 20:32:00,
2013-11-18 15:37:00,82.8,52.3,-100.00,South,178,5.0,-999.0,35,-99.99,,,-99.99,320.0,meteohub,2013-11-18 20:37:00,
2013-11-18 15:42:00,82.2,49.5,-100.00,SSW,201,7.0,-999.0,32,-99.99,,,-99.99,301.0,meteohub,2013-11-18 20:42:00,
2013-11-18 15:47:00,82.2,52.5,-100.00,SSE,157,0.0,-999.0,36,-99.99,,,-99.99,281.0,meteohub,2013-11-18 20:47:00,
2013-11-18 15:52:00,82.4,53.6,-100.00,South,179,3.0,-999.0,37,-99.99,,,-99.99,246.0,meteohub,2013-11-18 20:52:00,
2013-11-18 15:57:00,82.0,54.0,-100.00,SSW,200,7.0,-999.0,38,-99.99,,,-99.99,102.0,meteohub,2013-11-18 20:57:00,
2013-11-18 16:02:00,81.9,53.1,-100.00,South,175,3.0,-999.0,37,-99.99,,,-99.99,244.0,meteohub,2013-11-18 21:02:00,
2013-11-18 16:07:00,81.9,52.3,-100.00,South,183,1.0,-999.0,36,-99.99,,,-99.99,227.0,meteohub,2013-11-18 21:07:00,
2013-11-18 16:12:00,82.0,51.6,-100.00,SE,146,5.0,-999.0,35,-99.99,,,-99.99,230.0,meteohub,2013-11-18 21:12:00,
2013-11-18 16:17:00,82.0,52.5,-100.00,SE,142,3.0,-999.0,36,-99.99,,,-99.99,234.0,meteohub,2013-11-18 21:17:00,
2013-11-18 16:22:00,82.2,53.4,-100.00,SE,134,4.0,-999.0,37,-99.99,,,-99.99,199.0,meteohub,2013-11-18 21:22:00,
2013-11-18 16:27:00,82.2,51.1,-100.00,South,186,1.0,-999.0,34,-99.99,,,-99.99,142.0,meteohub,2013-11-18 21:27:00,
2013-11-18 16:32:00,82.2,47.7,-100.00,South,176,0.0,-999.0,30,-99.99,,,-99.99,107.0,meteohub,2013-11-18 21:32:00,
2013-11-18 16:37:00,81.9,47.3,-100.00,SSE,150,1.0,-999.0,30,-99.99,,,-99.99,95.0,meteohub,2013-11-18 21:37:00,
2013-11-18 16:42:00,81.7,46.4,-100.00,South,171,0.0,-999.0,29,-99.99,,,-99.99,83.0,meteohub,2013-11-18 21:42:00,
2013-11-18 16:47:00,81.1,46.8,-100.00,South,190,4.0,-999.0,30,-99.99,,,-99.99,49.0,meteohub,2013-11-18 21:47:00,
2013-11-18 16:52:00,81.7,42.4,-100.00,SE,140,5.0,-999.0,25,-99.99,,,-99.99,33.0,meteohub,2013-11-18 21:52:00,
2013-11-18 16:57:00,81.5,41.2,-100.00,SSE,158,3.0,-999.0,24,-99.99,,,-99.99,33.0,meteohub,2013-11-18 21:57:00,
2013-11-18 17:02:00,81.3,39.9,-100.00,SE,130,0.0,-999.0,23,-99.99,,,-99.99,16.0,meteohub,2013-11-18 22:02:00,
2013-11-18 17:07:00,81.3,38.8,-100.00,South,182,0.0,-999.0,22,-99.99,,,-99.99,14.0,meteohub,2013-11-18 22:07:00,
2013-11-18 17:12:00,81.1,37.6,-100.00,South,175,0.0,-999.0,21,-99.99,,,-99.99,7.0,meteohub,2013-11-18 22:12:00,
2013-11-18 17:17:00,81.1,37.6,-100.00,SSE,147,1.0,-999.0,21,-99.99,,,-99.99,0.0,meteohub,2013-11-18 22:17:00,
2013-11-18 17:22:00,81.1,36.3,-100.00,SSE,148,2.0,-999.0,20,-99.99,,,-99.99,0.0,meteohub,2013-11-18 22:22:00,
2013-11-18 17:27:00,81.1,36.3,-100.00,SSE,153,2.0,-999.0,20,-99.99,,,-99.99,0.0,meteohub,2013-11-18 22:27:00,
2013-11-18 17:32:00,81.1,36.3,-100.00,SSE,161,0.0,-999.0,20,-99.99,,,-99.99,0.0,meteohub,2013-11-18 22:32:00,
2013-11-18 17:37:00,81.1,36.3,-100.00,SSE,163,3.0,-999.0,20,-99.99,,,-99.99,0.0,meteohub,2013-11-18 22:37:00,
2013-11-18 17:42:00,81.0,36.1,-100.00,SSE,163,0.0,-999.0,20,-99.99,,,-99.99,0.0,meteohub,2013-11-18 22:42:00,
2013-11-18 17:47:00,81.0,36.1,-100.00,SSE,163,0.0,-999.0,20,-99.99,,,-99.99,0.0,meteohub,2013-11-18 22:47:00,
2013-11-18 17:52:00,81.0,36.1,-100.00,SSE,163,0.0,-999.0,20,-99.99,,,-99.99,0.0,meteohub,2013-11-18 22:52:00,
2013-11-18 17:57:00,81.0,36.1,-100.00,SSE,165,0.0,-999.0,20,-99.99,,,-99.99,0.0,meteohub,2013-11-18 22:57:00,
2013-11-18 18:02:00,81.0,36.1,-100.00,SSE,165,0.0,-999.0,20,-99.99,,,-99.99,0.0,meteohub,2013-11-18 23:02:00,
2013-11-18 18:07:00,80.8,34.7,-100.00,South,175,4.0,-999.0,19,-99.99,,,-99.99,0.0,meteohub,2013-11-18 23:07:00,
2013-11-18 18:12:00,80.8,34.7,-100.00,South,175,0.0,-999.0,19,-99.99,,,-99.99,0.0,meteohub,2013-11-18 23:12:00,
2013-11-18 18:22:00,80.8,34.7,-100.00,SSW,199,0.0,-999.0,19,-99.99,,,-99.99,0.0,meteohub,2013-11-18 23:22:00,
2013-11-18 18:27:00,81.0,33.4,-100.00,SSW,200,0.0,-999.0,18,-99.99,,,-99.99,0.0,meteohub,2013-11-18 23:27:00,
2013-11-18 18:32:00,80.8,33.3,-100.00,SSW,199,0.0,-999.0,18,-99.99,,,-99.99,0.0,meteohub,2013-11-18 23:32:00,
2013-11-18 18:37:00,80.8,33.3,-100.00,SSW,199,0.0,-999.0,18,-99.99,,,-99.99,0.0,meteohub,2013-11-18 23:37:00,
2013-11-18 18:42:00,81.0,32.0,-100.00,SSW,195,0.0,-999.0,17,-99.99,,,-99.99,0.0,meteohub,2013-11-18 23:42:00,
2013-11-18 18:47:00,80.8,31.8,-100.00,SSW,196,2.0,-999.0,17,-99.99,,,-99.99,0.0,meteohub,2013-11-18 23:47:00,
2013-11-18 18:52:00,80.8,31.8,-100.00,SSW,196,0.0,-999.0,17,-99.99,,,-99.99,0.0,meteohub,2013-11-18 23:52:00,
2013-11-18 18:57:00,80.6,30.2,-100.00,SSW,203,2.0,-999.0,16,-99.99,,,-99.99,0.0,meteohub,2013-11-18 23:57:00,
2013-11-18 19:02:00,80.8,30.4,-100.00,SSW,204,0.0,-999.0,16,-99.99,,,-99.99,0.0,meteohub,2013-11-19 00:02:00,
2013-11-18 19:07:00,80.6,30.2,-100.00,SSW,201,0.0,-999.0,16,-99.99,,,-99.99,0.0,meteohub,2013-11-19 00:07:00,
2013-11-18 19:12:00,80.8,30.4,-100.00,South,180,1.0,-999.0,16,-99.99,,,-99.99,0.0,meteohub,2013-11-19 00:12:00,
2013-11-18 19:17:00,80.6,30.2,-100.00,South,188,2.0,-999.0,16,-99.99,,,-99.99,0.0,meteohub,2013-11-19 00:17:00,
2013-11-18 19:22:00,80.4,30.2,-100.00,South,186,0.0,-999.0,16,-99.99,,,-99.99,0.0,meteohub,2013-11-19 00:22:00,
2013-11-18 19:27:00,80.6,30.2,-100.00,South,190,0.0,-999.0,16,-99.99,,,-99.99,0.0,meteohub,2013-11-19 00:27:00,
2013-11-18 19:32:00,80.4,30.2,-100.00,SSW,193,0.0,-999.0,16,-99.99,,,-99.99,0.0,meteohub,2013-11-19 00:32:00,
2013-11-18 19:37:00,80.4,30.2,-100.00,SSW,192,0.0,-999.0,16,-99.99,,,-99.99,0.0,meteohub,2013-11-19 00:37:00,
2013-11-18 19:42:00,80.4,28.6,-100.00,SSW,194,0.0,-999.0,15,-99.99,,,-99.99,0.0,meteohub,2013-11-19 00:42:00,
2013-11-18 19:47:00,80.4,28.6,-100.00,SSW,194,0.0,-999.0,15,-99.99,,,-99.99,0.0,meteohub,2013-11-19 00:47:00,
2013-11-18 19:52:00,80.2,26.8,-100.00,SSW,195,0.0,-999.0,14,-99.99,,,-99.99,0.0,meteohub,2013-11-19 00:52:00,
2013-11-18 19:57:00,80.1,26.6,-100.00,SSW,195,1.0,-999.0,14,-99.99,,,-99.99,0.0,meteohub,2013-11-19 00:57:00,
2013-11-18 20:02:00,80.1,26.6,-100.00,SSW,195,0.0,-999.0,14,-99.99,,,-99.99,0.0,meteohub,2013-11-19 01:02:00,
2013-11-18 20:07:00,79.9,26.4,-100.00,SSW,192,2.0,-999.0,14,-99.99,,,-99.99,0.0,meteohub,2013-11-19 01:07:00,
2013-11-18 20:12:00,80.1,26.6,-100.00,South,191,0.0,-999.0,14,-99.99,,,-99.99,0.0,meteohub,2013-11-19 01:12:00,
2013-11-18 20:17:00,80.1,26.6,-100.00,SSW,192,1.0,-999.0,14,-99.99,,,-99.99,0.0,meteohub,2013-11-19 01:17:00,
2013-11-18 20:22:00,80.1,26.6,-100.00,SSW,194,0.0,-999.0,14,-99.99,,,-99.99,0.0,meteohub,2013-11-19 01:22:00,
2013-11-18 20:27:00,80.1,28.2,-100.00,SSW,194,0.0,-999.0,15,-99.99,,,-99.99,0.0,meteohub,2013-11-19 01:27:00,
2013-11-18 20:32:00,80.1,28.2,-100.00,SSW,195,0.0,-999.0,15,-99.99,,,-99.99,0.0,meteohub,2013-11-19 01:32:00,
2013-11-18 20:37:00,79.9,28.0,-100.00,SSW,195,0.0,-999.0,15,-99.99,,,-99.99,0.0,meteohub,2013-11-19 01:37:00,
2013-11-18 20:42:00,79.9,28.0,-100.00,SSW,195,0.0,-999.0,15,-99.99,,,-99.99,0.0,meteohub,2013-11-19 01:42:00,
2013-11-18 20:47:00,79.9,28.0,-100.00,SSW,195,0.0,-999.0,15,-99.99,,,-99.99,0.0,meteohub,2013-11-19 01:47:00,
2013-11-18 20:52:00,79.9,28.0,-100.00,SSW,195,0.0,-999.0,15,-99.99,,,-99.99,0.0,meteohub,2013-11-19 01:52:00,
2013-11-18 20:57:00,79.9,28.0,-100.00,SSW,195,0.0,-999.0,15,-99.99,,,-99.99,0.0,meteohub,2013-11-19 01:57:00,
2013-11-18 21:02:00,79.9,28.0,-100.00,SSW,195,0.0,-999.0,15,-99.99,,,-99.99,0.0,meteohub,2013-11-19 02:02:00,
2013-11-18 21:07:00,79.9,28.0,-100.00,SSW,195,0.0,-999.0,15,-99.99,,,-99.99,0.0,meteohub,2013-11-19 02:07:00,
2013-11-18 21:12:00,79.9,26.4,-100.00,SSW,195,0.0,-999.0,14,-99.99,,,-99.99,0.0,meteohub,2013-11-19 02:12:00,
2013-11-18 21:17:00,79.7,26.2,-100.00,SSW,195,0.0,-999.0,14,-99.99,,,-99.99,0.0,meteohub,2013-11-19 02:17:00,
2013-11-18 21:22:00,79.9,26.4,-100.00,SSW,196,0.0,-999.0,14,-99.99,,,-99.99,0.0,meteohub,2013-11-19 02:22:00,
2013-11-18 21:27:00,79.9,26.4,-100.00,SSW,195,0.0,-999.0,14,-99.99,,,-99.99,0.0,meteohub,2013-11-19 02:27:00,
2013-11-18 21:32:00,79.7,26.2,-100.00,SSW,195,4.0,-999.0,14,-99.99,,,-99.99,0.0,meteohub,2013-11-19 02:32:00,
2013-11-18 21:42:00,79.7,26.2,-100.00,SSW,194,0.0,-999.0,14,-99.99,,,-99.99,0.0,meteohub,2013-11-19 02:42:00,
2013-11-18 21:47:00,79.5,26.1,-100.00,SSW,194,2.0,-999.0,14,-99.99,,,-99.99,0.0,meteohub,2013-11-19 02:47:00,
2013-11-18 21:52:00,79.5,26.1,-100.00,SSW,194,0.0,-999.0,14,-99.99,,,-99.99,0.0,meteohub,2013-11-19 02:52:00,
2013-11-18 21:57:00,79.5,26.1,-100.00,SSW,194,0.0,-999.0,14,-99.99,,,-99.99,0.0,meteohub,2013-11-19 02:57:00,
2013-11-18 22:02:00,79.3,26.1,-100.00,SSW,195,0.0,-999.0,14,-99.99,,,-99.99,0.0,meteohub,2013-11-19 03:02:00,
2013-11-18 22:07:00,79.3,26.1,-100.00,SSW,195,0.0,-999.0,14,-99.99,,,-99.99,0.0,meteohub,2013-11-19 03:07:00,
2013-11-18 22:12:00,79.2,25.9,-100.00,SSW,195,0.0,-999.0,14,-99.99,,,-99.99,0.0,meteohub,2013-11-19 03:12:00,
2013-11-18 22:17:00,79.2,24.1,-100.00,SSW,196,0.0,-999.0,13,-99.99,,,-99.99,0.0,meteohub,2013-11-19 03:17:00,
2013-11-18 22:22:00,79.2,24.1,-100.00,SSW,196,0.0,-999.0,13,-99.99,,,-99.99,0.0,meteohub,2013-11-19 03:22:00,
2013-11-18 22:27:00,79.0,23.9,-100.00,SSW,195,0.0,-999.0,13,-99.99,,,-99.99,0.0,meteohub,2013-11-19 03:27:00,
2013-11-18 22:32:00,79.0,23.9,-100.00,SSW,196,0.0,-999.0,13,-99.99,,,-99.99,0.0,meteohub,2013-11-19 03:32:00,
2013-11-18 22:37:00,78.8,23.7,-100.00,SSW,196,3.0,-999.0,13,-99.99,,,-99.99,0.0,meteohub,2013-11-19 03:37:00,
2013-11-18 22:42:00,78.6,23.7,-100.00,SSW,195,0.0,-999.0,13,-99.99,,,-99.99,0.0,meteohub,2013-11-19 03:42:00,
2013-11-18 22:47:00,78.6,23.7,-100.00,SSW,195,0.0,-999.0,13,-99.99,,,-99.99,0.0,meteohub,2013-11-19 03:47:00,
2013-11-18 22:52:00,78.6,23.7,-100.00,SSW,196,0.0,-999.0,13,-99.99,,,-99.99,0.0,meteohub,2013-11-19 03:52:00,
2013-11-18 22:57:00,78.4,25.3,-100.00,SSW,196,0.0,-999.0,14,-99.99,,,-99.99,0.0,meteohub,2013-11-19 03:57:00,
2013-11-18 23:02:00,78.4,25.3,-100.00,SSW,195,0.0,-999.0,14,-99.99,,,-99.99,0.0,meteohub,2013-11-19 04:02:00,
2013-11-18 23:07:00,78.4,25.3,-100.00,SSW,196,0.0,-999.0,14,-99.99,,,-99.99,0.0,meteohub,2013-11-19 04:07:00,
2013-11-18 23:12:00,78.4,25.3,-100.00,SSW,196,0.0,-999.0,14,-99.99,,,-99.99,0.0,meteohub,2013-11-19 04:12:00,
2013-11-18 23:22:00,78.3,25.2,-100.00,SSW,195,0.0,-999.0,14,-99.99,,,-99.99,0.0,meteohub,2013-11-19 04:22:00,
2013-11-18 23:27:00,78.3,25.2,-100.00,SSW,196,0.0,-999.0,14,-99.99,,,-99.99,0.0,meteohub,2013-11-19 04:27:00,
2013-11-18 23:32:00,78.3,25.2,-100.00,SSW,196,0.0,-999.0,14,-99.99,,,-99.99,0.0,meteohub,2013-11-19 04:32:00,
2013-11-18 23:37:00,78.1,25.0,-100.00,SSW,196,0.0,-999.0,14,-99.99,,,-99.99,0.0,meteohub,2013-11-19 04:37:00,
2013-11-18 23:42:00,78.1,25.0,-100.00,SSW,195,0.0,-999.0,14,-99.99,,,-99.99,0.0,meteohub,2013-11-19 04:42:00,
2013-11-18 23:47:00,78.1,25.0,-100.00,SSW,196,0.0,-999.0,14,-99.99,,,-99.99,0.0,meteohub,2013-11-19 04:47:00,
2013-11-18 23:52:00,78.1,25.0,-100.00,SSW,196,0.0,-999.0,14,-99.99,,,-99.99,0.0,meteohub,2013-11-19 04:52:00,
2013-11-18 23:57:00,78.1,25.0,-100.00,SSW,195,0.0,-999.0,14,-99.99,,,-99.99,0.0,meteohub,2013-11-19 04:57:00,